Weather History for KTYS - September, 2013

Change the Weather History Date:

Monday, September 23, 2013

  Actual Average Record
Temperature  
Mean Temperature 66 °F 68 °F  
Max Temperature 79 °F 79 °F 96 °F (1931)
Min Temperature 53 °F 58 °F 40 °F (1999)
Degree Days  
Heating Degree Days 0 1  
Month to date heating degree days 1 8  
Since 1 July heating degree days 1 8  
Cooling Degree Days 1 5  
Month to date cooling degree days 181 180  
Year to date cooling degree days 1368 1461  
Growing Degree Days 16 (Base 50)    
Moisture  
Dew Point 56 °F    
Average Humidity 71    
Maximum Humidity 93    
Minimum Humidity 48    
Precipitation  
Precipitation 0.00 in 0.11 in 3.04 in (2006)
Month to date precipitation 3.94 2.47  
Year to date precipitation 55.32 36.07  
Snow  
Snow 0.00 in 0.00 in - ()
Month to date snowfall 0.0 0.0  
Since 1 July snowfall 0.0 0.0  
Since 1 September snowfall 0.0 0.0  
Snow Depth 0.00 in    
Sea Level Pressure  
Sea Level Pressure 29.97 in    
Wind  
Wind Speed 4 mph (NNE)    
Max Wind Speed 10 mph    
Max Gust Speed 14 mph    
Visibility 10 miles    
Events      
T = Trace of Precipitation, MM = Missing Value Source: NWS Daily Summary

Daily Weather History Graph

Daily Weather History Graph

Search for Another Location

Airport or City:

Trip Planner

Search our weather history database for the weather conditions in past years. The results will help you decide how hot, cold, wet, or windy it might be!

Date:

Astronomy

Sep. 23, 2013 Rise Set
Actual Time 7:24 AM EDT 7:30 PM EDT
Civil Twilight 6:59 AM EDT 7:56 PM EDT
Nautical Twilight 6:29 AM EDT 8:26 PM EDT
Astronomical Twilight 5:59 AM EDT 8:56 PM EDT
Moon 10:11 PM EDT (9/23) 11:34 AM EDT (9/23)
Length of Visible Light 12h 57m
Length of Day
12h 06m
Waning Gibbous, 81% of the Moon is Illuminated
Sep 23
Waning Gibbous
Sep 26
Last Quarter
Oct 4
New
Oct 11
First Quarter
Oct 18
Full

Hourly Weather History & Observations

Time (EDT) Temp. Dew Point Humidity Pressure Visibility Wind Dir Wind Speed Gust Speed Precip Events Conditions
12:53 AM 57.9 °F 53.1 °F 84% 29.92 in 10.0 mi NNE 5.8 mph - N/A   Clear
1:53 AM 57.9 °F 54.0 °F 87% 29.92 in 10.0 mi NNE 6.9 mph - N/A   Clear
2:53 AM 57.0 °F 53.1 °F 87% 29.92 in 10.0 mi NNE 9.2 mph - N/A   Clear
3:53 AM 55.9 °F 53.1 °F 90% 29.93 in 10.0 mi NNE 5.8 mph - N/A   Clear
4:53 AM 55.9 °F 52.0 °F 87% 29.94 in 10.0 mi NNE 6.9 mph - N/A   Clear
5:53 AM 55.0 °F 52.0 °F 89% 29.95 in 10.0 mi NNE 6.9 mph - N/A   Clear
6:53 AM 54.0 °F 51.1 °F 90% 29.98 in 10.0 mi NE 3.5 mph - N/A   Partly Cloudy
7:53 AM 55.0 °F 52.0 °F 89% 29.99 in 10.0 mi NNE 4.6 mph - N/A   Partly Cloudy
8:53 AM 57.9 °F 53.1 °F 84% 30.01 in 10.0 mi NE 5.8 mph - N/A   Clear
9:53 AM 61.0 °F 55.0 °F 81% 30.01 in 10.0 mi NNE 8.1 mph - N/A   Partly Cloudy
10:53 AM 64.9 °F 55.9 °F 73% 30.02 in 10.0 mi NNE 5.8 mph - N/A   Partly Cloudy
11:53 AM 69.1 °F 57.0 °F 65% 30.01 in 10.0 mi NNE 5.8 mph - N/A   Partly Cloudy
12:53 PM 73.0 °F 57.9 °F 59% 30.01 in 10.0 mi Calm Calm - N/A   Partly Cloudy
1:53 PM 75.0 °F 59.0 °F 57% 29.99 in 10.0 mi North 3.5 mph - N/A   Partly Cloudy
2:53 PM 77.0 °F 57.9 °F 52% 29.98 in 10.0 mi Calm Calm - N/A   Partly Cloudy
3:53 PM 78.1 °F 59.0 °F 52% 29.97 in 10.0 mi Calm Calm - N/A   Partly Cloudy
4:53 PM 78.1 °F 57.9 °F 50% 29.96 in 10.0 mi NNW 8.1 mph - N/A   Partly Cloudy
5:53 PM 78.1 °F 57.9 °F 50% 29.96 in 10.0 mi Calm Calm - N/A   Partly Cloudy
6:53 PM 75.0 °F 59.0 °F 57% 29.96 in 10.0 mi ENE 4.6 mph - N/A   Partly Cloudy
7:53 PM 72.0 °F 59.0 °F 64% 29.96 in 10.0 mi Calm Calm - N/A   Partly Cloudy
8:53 PM 69.1 °F 61.0 °F 75% 29.97 in 10.0 mi NE 4.6 mph - N/A   Clear
9:53 PM 66.0 °F 61.0 °F 84% 29.98 in 10.0 mi Calm Calm - N/A   Clear
10:53 PM 64.0 °F 60.1 °F 87% 29.99 in 10.0 mi Calm Calm - N/A   Clear
11:53 PM 64.0 °F 60.1 °F 87% 30.00 in 10.0 mi Calm Calm - N/A   Scattered Clouds